Flag for U.S.A. Weather past 2 weeks in Pueblo, Colorado, U.S.A.

Now
11 °F

Clear.


Feels Like: 11 °F
Forecast: 2 / 25 °F
Wind: No wind

Location: Pueblo Memorial Airport

Current Time: Mar 1, 2015 at 6:30:36 AM

Latest Report: Mar 1, 2015 at 5:53 AM


Visibility: 7 mi

Pressure: 30.31 "Hg

Humidity: 88%

Dew point: 8 °F

Location of PuebloLocation

Historic Weather in Pueblo — Graph

°F

Pueblo temperature yesterday

Maximum temperature yesterday: 20 °F (at 2:53 PM)
Minimum temperature yesterday: 1 °F (at 6:53 AM)
Average temperature yesterday: 13 °F

Past Weeks' High & Low Weather Summary

 TemperatureHumidityPressure
High70 °F (Feb 14, 2:53 PM)100% (Feb 15, 7:53 PM)30.67 "Hg (Feb 15, 7:53 PM)
Low1 °F (Feb 28, 6:53 AM)11% (Feb 19, 12:53 PM)29.53 "Hg (Feb 20, 1:53 PM)
Average27 °F74%30.15 "Hg
* Reported Feb 14 4:53 AM — Mar 1 4:53 AM, Pueblo, Weather by CustomWeather, © 2015

Note: Actual official high and low records may vary slightly from our data, if they occured in-between our weather recording intervals... More about our weather records

Advertising

Pueblo weather history for previous 24 hours

 ConditionsComfort  
Time TempWeatherWind HumidityBarometerVisibility
4:53 AM
Sun, Mar 1
10 °FClear.No wind88%30.28 "Hg7 mi
3:53 AM11 °FClear.No wind88%30.24 "Hg8 mi
2:53 AM10 °FClear.No wind92%30.24 "Hg7 mi
1:53 AM12 °FClear.6 mph88%30.23 "Hg8 mi
12:53 AM13 °FClear.No wind88%30.22 "Hg8 mi
11:53 PM
Sat, Feb 28
12 °FClear.5 mph88%30.22 "Hg8 mi
10:53 PM15 °FPassing clouds.5 mph83%30.23 "Hg10 mi
9:53 PM16 °FPassing clouds.No wind80%30.23 "Hg10 mi
8:53 PM18 °FPassing clouds.3 mph80%30.21 "Hg10 mi
7:53 PM20 °FOvercast.No wind74%30.23 "Hg10 mi
6:53 PM19 °FOvercast.5 mph74%30.23 "Hg10 mi
5:53 PM19 °FOvercast.3 mph74%30.21 "Hg10 mi
4:53 PM19 °FOvercast.5 mph74%30.17 "Hg10 mi
3:53 PM20 °FScattered clouds.5 mph71%30.16 "Hg10 mi
2:53 PM20 °FScattered clouds.6 mph68%30.15 "Hg10 mi
1:53 PM19 °FPassing clouds.6 mph71%30.15 "Hg10 mi
12:53 PM19 °FSunny.6 mph65%30.14 "Hg10 mi
11:53 AM17 °FSunny.No wind68%30.17 "Hg10 mi
10:53 AM15 °FSunny.5 mph74%30.18 "Hg10 mi
9:53 AM12 °FSunny.No wind77%30.20 "Hg10 mi
8:53 AM13 °FSunny.No wind74%30.18 "Hg10 mi
7:53 AM6 °FSunny.3 mph79%30.20 "Hg10 mi
6:53 AM1 °FSunny.3 mph83%30.17 "Hg10 mi
Weather by CustomWeather, © 2015

See weather overviewHow to use our weather pages